Content
SEND FEEDBACK

Daily
Averages
Monthly
Summary
United States of America

COWETA, OKLAHOMA


Home > North America > United States > Oklahoma
Elevation: 720 feet     Latitude: 36 00N     Longitude: 095 43W

WEATHER
 
SELECT A DAY
Number of Records: 192,727;   Date Range: 1/1/95 - 7/29/14
 
SHARE

PRINT THIS DATA

[ ← Previous Day ]
WEATHER ALMANAC - MAY 4, 2014
[ Next Day → ]
[ °C ]   °F
Weather ElementAverageHighLow
Temperature79.7 °F93.9 °F (3:53 pm)64 °F (4:53 am)
Dewpoint47.3 °F51.1 °F (1:53 pm)44.1 °F (3:53 am)
Humidity33.4 %50 % (4:53 am)20 % (2:53 pm)
Barometer29.81 in29.89 in (1:53 am)29.73 in (6:53 pm)
Wind Speed17 mph25.3 mph (3:53 pm)
Wind Gust35.7 mph (3:53 pm)
Weather ElementAverage
Visibility10 mi
Wind DirectionS (180 °)

Weather ElementTotal
Precipitation---
Cooling Degree Days14 (Base 65)
Growing Degree Days29 (Base 50)
Averaged from 23 records on May 4, 2014
WEATHER CONDITIONS BREAKOUT
WIND DIRECTION BREAKOUT
WEATHER BY HOUR - MAY 4, 2014
[ °C ]   °F
Local TimeTemperatureDewpointHumidityBarometerVisibilityWind DirectionWind SpeedGust SpeedPrecipitationEventsConditions
1:53 AM69.1 °F45.0 °F42 %29.89 in10.0 miSouth (170°)12.7 mphClear
2:53 AM69.1 °F45.0 °F42 %29.88 in10.0 miSouth (180°)12.7 mphClear
3:53 AM68.0 °F44.1 °F42 %29.87 in10.0 miSouth (190°)12.7 mphClear
4:53 AM64.0 °F45.0 °F50 %29.88 in10.0 miSouth (170°)12.7 mphClear
5:53 AM64.0 °F45.0 °F50 %29.87 in10.0 miSouth (170°)12.7 mphClear
6:53 AM64.9 °F45.0 °F48 %29.86 in10.0 miSouth (170°)13.8 mphPartly Cloudy
7:53 AM68.0 °F45.0 °F43 %29.87 in10.0 miSouth (180°)16.1 mphPartly Cloudy
8:53 AM72.0 °F46.9 °F41 %29.86 in10.0 miSouth (180°)13.8 mphPartly Cloudy
9:53 AM75.9 °F46.9 °F36 %29.86 in10.0 miSouth (190°)13.8 mph23.0 mphPartly Cloudy
10:53 AM81.0 °F48.0 °F31 %29.86 in10.0 miSouth (190°)12.7 mphPartly Cloudy
11:53 AM86.0 °F48.0 °F27 %29.83 in10.0 miSouth (180°)12.7 mphPartly Cloudy
12:53 PM88.0 °F48.9 °F26 %29.81 in10.0 miSouth (180°)19.6 mph27.6 mphPartly Cloudy
1:53 PM91.0 °F51.1 °F25 %29.80 in10.0 miSouth (190°)19.6 mph26.5 mphPartly Cloudy
2:53 PM93.0 °F46.9 °F20 %29.78 in10.0 miSouth (190°)19.6 mph29.9 mphPartly Cloudy
3:53 PM93.9 °F46.9 °F20 %29.77 in10.0 miSouth (190°)25.3 mph35.7 mphClear
4:53 PM93.9 °F48.0 °F21 %29.75 in10.0 miSouth (180°)18.4 mph28.8 mphClear
5:53 PM91.9 °F48.9 °F23 %29.74 in10.0 miSouth (180°)17.3 mph32.2 mphClear
6:53 PM91.0 °F46.9 °F22 %29.73 in10.0 miSouth (180°)21.9 mph29.9 mphClear
7:53 PM87.1 °F51.1 °F29 %29.74 in10.0 miSouth (180°)18.4 mph25.3 mphClear
8:53 PM84.0 °F48.9 °F29 %29.74 in10.0 miSouth (170°)17.3 mphClear
9:53 PM82.0 °F48.9 °F31 %29.74 in10.0 miSouth (180°)24.2 mph34.5 mphPartly Cloudy
10:53 PM79.0 °F48.9 °F35 %29.75 in10.0 miSouth (170°)23.0 mph29.9 mphPartly Cloudy
11:53 PM77.0 °F48.0 °F36 %29.75 in10.0 miSouth (180°)19.6 mphScattered Clouds
Hourly data recorded from KTUL, located miles away from Coweta, Oklahoma







STORIES FROM OUR PARTNERS